This is the latest recevied weather packets stored in our database for station/object KE0FIN. If no packets are shown the sender has not sent any weather packets the latest 1 day(s).
| Time | Temp. | Humidity | Pressure | Rain* | Wind** | Luminosity | Snow |
|---|---|---|---|---|---|---|---|
| 1777991445 | 11.11° C | 61% | 1062.5 hPa | 0 mm | 1.34 m/s, 70° | 66 W/m² | - |
| 1777991142 | 11.11° C | 62% | 1062.3 hPa | 0 mm | 0.45 m/s, 142° | 42 W/m² | - |
| 1777990839 | 11.11° C | 62% | 1062.1 hPa | 0 mm | 0.89 m/s, 68° | 51 W/m² | - |
| 1777990537 | 11.11° C | 62% | 1062 hPa | 0 mm | 0.89 m/s, 125° | 56 W/m² | - |
| 1777990233 | 11.11° C | 63% | 1062.1 hPa | 0 mm | 0.89 m/s, 86° | 49 W/m² | - |
| 1777989930 | 11.11° C | 63% | 1062.2 hPa | 0 mm | 0.45 m/s, 143° | 48 W/m² | - |
| 1777989627 | 11.11° C | 63% | 1062.4 hPa | 0 mm | 1.79 m/s, 96° | 35 W/m² | - |
| 1777989323 | 11.11° C | 63% | 1062 hPa | 0 mm | 0.45 m/s, 121° | 31 W/m² | - |
| 1777989020 | 11.11° C | 63% | 1061.6 hPa | 0 mm | 0.89 m/s, 179° | 31 W/m² | - |
| 1777988716 | 11.11° C | 64% | 1061.6 hPa | 0 mm | 1.34 m/s, 198° | 35 W/m² | - |
| 1777988413 | 11.11° C | 63% | 1061.5 hPa | 0 mm | 0.89 m/s, 92° | 29 W/m² | - |
| 1777988110 | 11.11° C | 64% | 1061.4 hPa | 0 mm | 0.89 m/s, 85° | 25 W/m² | - |
| 1777987806 | 11.11° C | 63% | 1061.2 hPa | 0 mm | 0.45 m/s, 136° | 24 W/m² | - |
| 1777987503 | 11.11° C | 62% | 1061.1 hPa | 0 mm | 0.89 m/s, 131° | 25 W/m² | - |
| 1777987200 | 11.11° C | 63% | 1061.1 hPa | 0 mm | 0.89 m/s, 142° | 30 W/m² | - |
| 1777986896 | 11.11° C | 62% | 1061.3 hPa | 0 mm | 0.89 m/s, 104° | 30 W/m² | - |
| 1777986595 | 11.11° C | 62% | 1061.1 hPa | 0 mm | 0.89 m/s, 123° | 23 W/m² | - |
| 1777986292 | 11.11° C | 61% | 1060.9 hPa | 0 mm | 0.45 m/s, 114° | 16 W/m² | - |
| 1777985990 | 11.11° C | 59% | 1060.8 hPa | 0 mm | 1.34 m/s, 107° | 21 W/m² | - |
| 1777985687 | 11.11° C | 60% | 1060.6 hPa | 0 mm | 0 m/s | 18 W/m² | - |
| 1777985383 | 11.11° C | 61% | 1060.4 hPa | 0 mm | 0.45 m/s, 109° | 28 W/m² | - |
| 1777985080 | 11.11° C | 64% | 1060.4 hPa | 0 mm | 0.45 m/s, 112° | 27 W/m² | - |
| 1777984776 | 11.11° C | 62% | 1060.3 hPa | 0 mm | 0.45 m/s, 94° | 21 W/m² | - |
| 1777984473 | 11.11° C | 61% | 1060.1 hPa | 0 mm | 0.45 m/s, 130° | 19 W/m² | - |
| 1777984169 | 11.67° C | 58% | 1060.1 hPa | 0 mm | 1.79 m/s, 88° | 11 W/m² | - |
* Rain latest hour (hover to see other rain measurements)
** Current wind speed in m/s (hover to see current wind gust speed)